Year,Month,Day,Hour,Minute,Value (Times are PST for temperature in C)
2012,05,05,00,00,6.90
2012,05,05,00,01,6.90
2012,05,05,00,02,6.90
2012,05,05,00,03,6.90
2012,05,05,00,04,6.90
2012,05,05,00,05,6.90
2012,05,05,00,06,6.90
2012,05,05,00,07,6.90
2012,05,05,00,08,6.90
2012,05,05,00,09,6.90
2012,05,05,00,10,6.90
2012,05,05,00,11,6.90
2012,05,05,00,12,6.90
2012,05,05,00,13,6.90
2012,05,05,00,14,6.90
2012,05,05,00,15,6.90
2012,05,05,00,16,6.90
2012,05,05,00,17,6.90
2012,05,05,00,18,7.00
2012,05,05,00,19,7.00
2012,05,05,00,20,7.00
2012,05,05,00,21,7.00
2012,05,05,00,22,7.00
2012,05,05,00,23,7.00
2012,05,05,00,24,7.00
2012,05,05,00,25,7.00
2012,05,05,00,26,7.00
2012,05,05,00,27,7.00
2012,05,05,00,28,7.00
2012,05,05,00,29,7.00
2012,05,05,00,30,7.00
2012,05,05,00,31,7.00
2012,05,05,00,32,7.00
2012,05,05,00,33,7.00
2012,05,05,00,34,7.00
2012,05,05,00,35,7.00
2012,05,05,00,36,7.00
2012,05,05,00,37,6.90
2012,05,05,00,38,6.90
2012,05,05,00,39,6.90
2012,05,05,00,40,6.90
2012,05,05,00,41,6.90
2012,05,05,00,42,6.90
2012,05,05,00,43,6.90
2012,05,05,00,44,6.90
2012,05,05,00,45,6.90
2012,05,05,00,46,6.90
2012,05,05,00,47,6.90
2012,05,05,00,48,6.90
2012,05,05,00,49,6.90
2012,05,05,00,50,6.80
2012,05,05,00,51,6.80
2012,05,05,00,52,6.80
2012,05,05,00,53,6.80
2012,05,05,00,54,6.80
2012,05,05,00,55,6.80
2012,05,05,00,56,6.80
2012,05,05,00,57,6.80
2012,05,05,00,58,6.80
2012,05,05,00,59,6.80
2012,05,05,01,00,6.90
2012,05,05,01,01,6.90
2012,05,05,01,02,6.90
2012,05,05,01,03,6.90
2012,05,05,01,04,6.90
2012,05,05,01,05,6.90
2012,05,05,01,06,6.90
2012,05,05,01,07,6.90
2012,05,05,01,08,6.90
2012,05,05,01,09,6.80
2012,05,05,01,10,6.80
2012,05,05,01,11,6.80
2012,05,05,01,12,6.80
2012,05,05,01,13,6.80
2012,05,05,01,14,6.80
2012,05,05,01,15,6.80
2012,05,05,01,16,6.80
2012,05,05,01,17,6.80
2012,05,05,01,18,6.80
2012,05,05,01,19,6.80
2012,05,05,01,20,6.80
2012,05,05,01,21,6.80
2012,05,05,01,22,6.80
2012,05,05,01,23,6.80
2012,05,05,01,24,6.80
2012,05,05,01,25,6.80
2012,05,05,01,26,6.80
2012,05,05,01,27,6.80
2012,05,05,01,28,6.80
2012,05,05,01,29,6.80
2012,05,05,01,30,6.80
2012,05,05,01,31,6.80
2012,05,05,01,32,6.80
2012,05,05,01,33,6.80
2012,05,05,01,34,6.80
2012,05,05,01,35,6.80
2012,05,05,01,36,6.80
2012,05,05,01,37,6.80
2012,05,05,01,38,6.70
2012,05,05,01,39,6.70
2012,05,05,01,40,6.70
2012,05,05,01,41,6.70
2012,05,05,01,42,6.70
2012,05,05,01,43,6.70
2012,05,05,01,44,6.70
2012,05,05,01,45,6.70
2012,05,05,01,46,6.70
2012,05,05,01,47,6.70
2012,05,05,01,48,6.70
2012,05,05,01,49,6.70
2012,05,05,01,50,6.70
2012,05,05,01,51,6.70
2012,05,05,01,52,6.70
2012,05,05,01,53,6.70
2012,05,05,01,54,6.70
2012,05,05,01,55,6.60
2012,05,05,01,56,6.60
2012,05,05,01,57,6.60
2012,05,05,01,58,6.60
2012,05,05,01,59,6.60
2012,05,05,02,00,6.60
2012,05,05,02,01,6.60
2012,05,05,02,02,6.60
2012,05,05,02,03,6.60
2012,05,05,02,04,6.60
2012,05,05,02,05,6.60
2012,05,05,02,06,6.60
2012,05,05,02,07,6.60
2012,05,05,02,08,6.60
2012,05,05,02,09,6.60
2012,05,05,02,10,6.60
2012,05,05,02,11,6.60
2012,05,05,02,12,6.60
2012,05,05,02,13,6.60
2012,05,05,02,14,6.60
2012,05,05,02,15,6.60
2012,05,05,02,16,6.60
2012,05,05,02,17,6.60
2012,05,05,02,18,6.60
2012,05,05,02,19,6.60
2012,05,05,02,20,6.60
2012,05,05,02,21,6.60
2012,05,05,02,22,6.60
2012,05,05,02,23,6.60
2012,05,05,02,24,6.60
2012,05,05,02,25,6.60
2012,05,05,02,26,6.60
2012,05,05,02,27,6.60
2012,05,05,02,28,6.60
2012,05,05,02,29,6.60
2012,05,05,02,30,6.60
2012,05,05,02,31,6.60
2012,05,05,02,32,6.60
2012,05,05,02,33,6.60
2012,05,05,02,34,6.60
2012,05,05,02,35,6.50
2012,05,05,02,36,6.50
2012,05,05,02,37,6.50
2012,05,05,02,38,6.50
2012,05,05,02,39,6.50
2012,05,05,02,40,6.50
2012,05,05,02,41,6.50
2012,05,05,02,42,6.50
2012,05,05,02,43,6.50
2012,05,05,02,44,6.50
2012,05,05,02,45,6.50
2012,05,05,02,46,6.50
2012,05,05,02,47,6.50
2012,05,05,02,48,6.50
2012,05,05,02,49,6.50
2012,05,05,02,50,6.50
2012,05,05,02,51,6.50
2012,05,05,02,52,6.50
2012,05,05,02,53,6.50
2012,05,05,02,54,6.50
2012,05,05,02,55,6.50
2012,05,05,02,56,6.50
2012,05,05,02,57,6.50
2012,05,05,02,58,6.50
2012,05,05,02,59,6.50
2012,05,05,03,00,6.40
2012,05,05,03,01,6.40
2012,05,05,03,02,6.40
2012,05,05,03,03,6.40
2012,05,05,03,04,6.50
2012,05,05,03,05,6.50
2012,05,05,03,06,6.50
2012,05,05,03,07,6.40
2012,05,05,03,08,6.40
2012,05,05,03,09,6.40
2012,05,05,03,10,6.40
2012,05,05,03,11,6.40
2012,05,05,03,12,6.40
2012,05,05,03,13,6.40
2012,05,05,03,14,6.40
2012,05,05,03,15,6.40
2012,05,05,03,16,6.40
2012,05,05,03,17,6.40
2012,05,05,03,18,6.40
2012,05,05,03,19,6.40
2012,05,05,03,20,6.40
2012,05,05,03,21,6.40
2012,05,05,03,22,6.30
2012,05,05,03,23,6.30
2012,05,05,03,24,6.30
2012,05,05,03,25,6.30
2012,05,05,03,26,6.30
2012,05,05,03,27,6.30
2012,05,05,03,28,6.30
2012,05,05,03,29,6.30
2012,05,05,03,30,6.30
2012,05,05,03,31,6.30
2012,05,05,03,32,6.30
2012,05,05,03,33,6.30
2012,05,05,03,34,6.30
2012,05,05,03,35,6.30
2012,05,05,03,36,6.30
2012,05,05,03,37,6.30
2012,05,05,03,38,6.30
2012,05,05,03,39,6.30
2012,05,05,03,40,6.30
2012,05,05,03,41,6.30
2012,05,05,03,42,6.30
2012,05,05,03,43,6.30
2012,05,05,03,44,6.30
2012,05,05,03,45,6.30
2012,05,05,03,46,6.30
2012,05,05,03,47,6.30
2012,05,05,03,48,6.30
2012,05,05,03,49,6.30
2012,05,05,03,50,6.30
2012,05,05,03,51,6.30
2012,05,05,03,52,6.30
2012,05,05,03,53,6.30
2012,05,05,03,54,6.30
2012,05,05,03,55,6.30
2012,05,05,03,56,6.30
2012,05,05,03,57,6.30
2012,05,05,03,58,6.30
2012,05,05,03,59,6.30
2012,05,05,04,00,6.40
2012,05,05,04,01,6.40
2012,05,05,04,02,6.40
2012,05,05,04,03,6.40
2012,05,05,04,04,6.40
2012,05,05,04,05,6.40
2012,05,05,04,06,6.40
2012,05,05,04,07,6.40
2012,05,05,04,08,6.40
2012,05,05,04,09,6.40
2012,05,05,04,10,6.40
2012,05,05,04,11,6.40
2012,05,05,04,12,6.40
2012,05,05,04,13,6.40
2012,05,05,04,14,6.40
2012,05,05,04,15,6.40
2012,05,05,04,16,6.40
2012,05,05,04,17,6.40
2012,05,05,04,18,6.40
2012,05,05,04,19,6.40
2012,05,05,04,20,6.40
2012,05,05,04,21,6.40
2012,05,05,04,22,6.40
2012,05,05,04,23,6.40
2012,05,05,04,24,6.40
2012,05,05,04,25,6.40
2012,05,05,04,26,6.40
2012,05,05,04,27,6.40
2012,05,05,04,28,6.40
2012,05,05,04,29,6.40
2012,05,05,04,30,6.40
2012,05,05,04,31,6.50
2012,05,05,04,32,6.50
2012,05,05,04,33,6.50
2012,05,05,04,34,6.50
2012,05,05,04,35,6.50
2012,05,05,04,36,6.50
2012,05,05,04,37,6.50
2012,05,05,04,38,6.50
2012,05,05,04,39,6.50
2012,05,05,04,40,6.50
2012,05,05,04,41,6.50
2012,05,05,04,42,6.50
2012,05,05,04,43,6.50
2012,05,05,04,44,6.50
2012,05,05,04,45,6.50
2012,05,05,04,46,6.50
2012,05,05,04,47,6.60
2012,05,05,04,48,6.60
2012,05,05,04,49,6.60
2012,05,05,04,50,6.60
2012,05,05,04,51,6.60
2012,05,05,04,52,6.60
2012,05,05,04,53,6.60
2012,05,05,04,54,6.60
2012,05,05,04,55,6.60
2012,05,05,04,56,6.60
2012,05,05,04,57,6.60
2012,05,05,04,58,6.60
2012,05,05,04,59,6.60
2012,05,05,05,00,6.60
2012,05,05,05,01,6.60
2012,05,05,05,02,6.60
2012,05,05,05,03,6.60
2012,05,05,05,04,6.60
2012,05,05,05,05,6.60
2012,05,05,05,06,6.60
2012,05,05,05,07,6.70
2012,05,05,05,08,6.70
2012,05,05,05,09,6.70
2012,05,05,05,10,6.70
2012,05,05,05,11,6.70
2012,05,05,05,12,6.70
2012,05,05,05,13,6.70
2012,05,05,05,14,6.70
2012,05,05,05,15,6.70
2012,05,05,05,16,6.70
2012,05,05,05,17,6.70
2012,05,05,05,18,6.70
2012,05,05,05,19,6.70
2012,05,05,05,20,6.70
2012,05,05,05,21,6.70
2012,05,05,05,22,6.70
2012,05,05,05,23,6.70
2012,05,05,05,24,6.70
2012,05,05,05,25,6.60
2012,05,05,05,26,6.60
2012,05,05,05,27,6.60
2012,05,05,05,28,6.60
2012,05,05,05,29,6.60
2012,05,05,05,30,6.60
2012,05,05,05,31,6.60
2012,05,05,05,32,6.60
2012,05,05,05,33,6.60
2012,05,05,05,34,6.60
2012,05,05,05,35,6.60
2012,05,05,05,36,6.60
2012,05,05,05,37,6.60
2012,05,05,05,38,6.60
2012,05,05,05,39,6.60
2012,05,05,05,40,6.60
2012,05,05,05,41,6.60
2012,05,05,05,42,6.60
2012,05,05,05,43,6.60
2012,05,05,05,44,6.60
2012,05,05,05,45,6.60
2012,05,05,05,46,6.60
2012,05,05,05,47,6.60
2012,05,05,05,48,6.60
2012,05,05,05,49,6.60
2012,05,05,05,50,6.60
2012,05,05,05,51,6.60
2012,05,05,05,52,6.60
2012,05,05,05,53,6.60
2012,05,05,05,54,6.60
2012,05,05,05,55,6.60
2012,05,05,05,56,6.60
2012,05,05,05,57,6.60
2012,05,05,05,58,6.60
2012,05,05,05,59,6.60
2012,05,05,06,00,6.60
2012,05,05,06,01,6.60
2012,05,05,06,02,6.60
2012,05,05,06,03,6.60
2012,05,05,06,04,6.60
2012,05,05,06,05,6.60
2012,05,05,06,06,6.70
2012,05,05,06,07,6.70
2012,05,05,06,08,6.70
2012,05,05,06,09,6.70
2012,05,05,06,10,6.70
2012,05,05,06,11,6.70
2012,05,05,06,12,6.70
2012,05,05,06,13,6.70
2012,05,05,06,14,6.70
2012,05,05,06,15,6.70
2012,05,05,06,16,6.70
2012,05,05,06,17,6.70
2012,05,05,06,18,6.70
2012,05,05,06,19,6.70
2012,05,05,06,20,6.70
2012,05,05,06,21,6.70
2012,05,05,06,22,6.70
2012,05,05,06,23,6.70
2012,05,05,06,24,6.70
2012,05,05,06,25,6.80
2012,05,05,06,26,6.80
2012,05,05,06,27,6.80
2012,05,05,06,28,6.80
2012,05,05,06,29,6.80
2012,05,05,06,30,6.80
2012,05,05,06,31,6.80
2012,05,05,06,32,6.80
2012,05,05,06,33,6.80
2012,05,05,06,34,6.80
2012,05,05,06,35,6.80
2012,05,05,06,36,6.80
2012,05,05,06,37,6.80
2012,05,05,06,38,6.80
2012,05,05,06,39,6.80
2012,05,05,06,40,6.80
2012,05,05,06,41,6.80
2012,05,05,06,42,6.80
2012,05,05,06,43,6.80
2012,05,05,06,44,6.80
2012,05,05,06,45,6.80
2012,05,05,06,46,6.80
2012,05,05,06,47,6.80
2012,05,05,06,48,6.90
2012,05,05,06,49,6.90
2012,05,05,06,50,6.90
2012,05,05,06,51,6.90
2012,05,05,06,52,6.90
2012,05,05,06,53,6.90
2012,05,05,06,54,6.90
2012,05,05,06,55,6.90
2012,05,05,06,56,6.90
2012,05,05,06,57,7.00
2012,05,05,06,58,7.00
2012,05,05,06,59,7.00
2012,05,05,07,00,7.00
2012,05,05,07,01,7.00
2012,05,05,07,02,7.00
2012,05,05,07,03,7.00
2012,05,05,07,04,7.00
2012,05,05,07,05,7.10
2012,05,05,07,06,7.10
2012,05,05,07,07,7.10
2012,05,05,07,08,7.10
2012,05,05,07,09,7.10
2012,05,05,07,10,7.20
2012,05,05,07,11,7.20
2012,05,05,07,12,7.20
2012,05,05,07,13,7.20
2012,05,05,07,14,7.20
2012,05,05,07,15,7.20
2012,05,05,07,16,7.20
2012,05,05,07,17,7.20
2012,05,05,07,18,7.20
2012,05,05,07,19,7.20
2012,05,05,07,20,7.20
2012,05,05,07,21,7.20
2012,05,05,07,22,7.20
2012,05,05,07,23,7.30
2012,05,05,07,24,7.30
2012,05,05,07,25,7.30
2012,05,05,07,26,7.30
2012,05,05,07,27,7.30
2012,05,05,07,28,7.30
2012,05,05,07,29,7.30
2012,05,05,07,30,7.30
2012,05,05,07,31,7.40
2012,05,05,07,32,7.40
2012,05,05,07,33,7.40
2012,05,05,07,34,7.40
2012,05,05,07,35,7.40
2012,05,05,07,36,7.40
2012,05,05,07,37,7.40
2012,05,05,07,38,7.40
2012,05,05,07,39,7.40
2012,05,05,07,40,7.40
2012,05,05,07,41,7.40
2012,05,05,07,42,7.40
2012,05,05,07,43,7.40
2012,05,05,07,44,7.40
2012,05,05,07,45,7.40
2012,05,05,07,46,7.40
2012,05,05,07,47,7.40
2012,05,05,07,48,7.40
2012,05,05,07,49,7.40
2012,05,05,07,50,7.40
2012,05,05,07,51,7.40
2012,05,05,07,52,7.40
2012,05,05,07,53,7.40
2012,05,05,07,54,7.40
2012,05,05,07,55,7.40
2012,05,05,07,56,7.40
2012,05,05,07,57,7.40
2012,05,05,07,58,7.50
2012,05,05,07,59,7.40
2012,05,05,08,00,7.50
2012,05,05,08,01,7.50
2012,05,05,08,02,7.50
2012,05,05,08,03,7.50
2012,05,05,08,04,7.50
2012,05,05,08,05,7.60
2012,05,05,08,06,7.60
2012,05,05,08,07,7.60
2012,05,05,08,08,7.60
2012,05,05,08,09,7.60
2012,05,05,08,10,7.60
2012,05,05,08,11,7.60
2012,05,05,08,12,7.60
2012,05,05,08,13,7.60
2012,05,05,08,14,7.60
2012,05,05,08,15,7.60
2012,05,05,08,16,7.70
2012,05,05,08,17,7.70
2012,05,05,08,18,7.70
2012,05,05,08,19,7.70
2012,05,05,08,20,7.70
2012,05,05,08,21,7.70
2012,05,05,08,22,7.70
2012,05,05,08,23,7.70
2012,05,05,08,24,7.70
2012,05,05,08,25,7.80
2012,05,05,08,26,7.80
2012,05,05,08,27,7.80
2012,05,05,08,28,7.80
2012,05,05,08,29,7.80
2012,05,05,08,30,7.80
2012,05,05,08,31,7.80
2012,05,05,08,32,7.80
2012,05,05,08,33,7.90
2012,05,05,08,34,7.80
2012,05,05,08,35,7.90
2012,05,05,08,36,7.90
2012,05,05,08,37,7.90
2012,05,05,08,38,7.90
2012,05,05,08,39,7.90
2012,05,05,08,40,7.90
2012,05,05,08,41,7.90
2012,05,05,08,42,7.90
2012,05,05,08,43,8.00
2012,05,05,08,44,8.00
2012,05,05,08,45,8.00
2012,05,05,08,46,8.00
2012,05,05,08,47,8.10
2012,05,05,08,48,8.10
2012,05,05,08,49,8.10
2012,05,05,08,50,8.20
2012,05,05,08,51,8.20
2012,05,05,08,52,8.20
2012,05,05,08,53,8.30
2012,05,05,08,54,8.30
2012,05,05,08,55,8.30
2012,05,05,08,56,8.30
2012,05,05,08,57,8.30
2012,05,05,08,58,8.40
2012,05,05,08,59,8.40
2012,05,05,09,00,8.40
2012,05,05,09,01,8.40
2012,05,05,09,02,8.50
2012,05,05,09,03,8.50
2012,05,05,09,04,8.60
2012,05,05,09,05,8.60
2012,05,05,09,06,8.60
2012,05,05,09,07,8.60
2012,05,05,09,08,8.60
2012,05,05,09,09,8.60
2012,05,05,09,10,8.60
2012,05,05,09,11,8.60
2012,05,05,09,12,8.60
2012,05,05,09,13,8.70
2012,05,05,09,14,8.70
2012,05,05,09,15,8.70
2012,05,05,09,16,8.70
2012,05,05,09,17,8.80
2012,05,05,09,18,8.80
2012,05,05,09,19,8.90
2012,05,05,09,20,8.90
2012,05,05,09,21,9.00
2012,05,05,09,22,9.10
2012,05,05,09,23,9.20
2012,05,05,09,24,9.20
2012,05,05,09,25,9.20
2012,05,05,09,26,9.30
2012,05,05,09,27,9.30
2012,05,05,09,28,9.30
2012,05,05,09,29,9.20
2012,05,05,09,30,9.30
2012,05,05,09,31,9.30
2012,05,05,09,32,9.30
2012,05,05,09,33,9.30
2012,05,05,09,34,9.40
2012,05,05,09,35,9.50
2012,05,05,09,36,9.60
2012,05,05,09,37,9.70
2012,05,05,09,38,9.70
2012,05,05,09,39,9.70
2012,05,05,09,40,9.80
2012,05,05,09,41,9.80
2012,05,05,09,42,9.80
2012,05,05,09,43,9.80
2012,05,05,09,44,9.80
2012,05,05,09,45,9.80
2012,05,05,09,46,9.70
2012,05,05,09,47,9.70
2012,05,05,09,48,9.70
2012,05,05,09,49,9.60
2012,05,05,09,50,9.60
2012,05,05,09,51,9.60
2012,05,05,09,52,9.50
2012,05,05,09,53,9.50
2012,05,05,09,54,9.40
2012,05,05,09,55,9.40
2012,05,05,09,56,9.40
2012,05,05,09,57,9.40
2012,05,05,09,58,9.50
2012,05,05,09,59,9.50
2012,05,05,10,00,9.60
2012,05,05,10,01,9.60
2012,05,05,10,02,9.70
2012,05,05,10,03,9.70
2012,05,05,10,04,9.70
2012,05,05,10,05,9.70
2012,05,05,10,06,9.70
2012,05,05,10,07,9.80
2012,05,05,10,08,9.80
2012,05,05,10,09,9.70
2012,05,05,10,10,9.70
2012,05,05,10,11,9.70
2012,05,05,10,12,9.70
2012,05,05,10,13,9.70
2012,05,05,10,14,9.70
2012,05,05,10,15,9.70
2012,05,05,10,16,9.70
2012,05,05,10,17,9.80
2012,05,05,10,18,9.80
2012,05,05,10,19,9.80
2012,05,05,10,20,9.90
2012,05,05,10,21,9.90
2012,05,05,10,22,10.00
2012,05,05,10,23,10.10
2012,05,05,10,24,10.00
2012,05,05,10,25,9.80
2012,05,05,10,26,9.80
2012,05,05,10,27,9.70
2012,05,05,10,28,9.60
2012,05,05,10,29,9.60
2012,05,05,10,30,9.60
2012,05,05,10,31,9.60
2012,05,05,10,32,9.60
2012,05,05,10,33,9.60
2012,05,05,10,34,9.60
2012,05,05,10,35,9.70
2012,05,05,10,36,9.80
2012,05,05,10,37,9.90
2012,05,05,10,38,9.90
2012,05,05,10,39,10.00
2012,05,05,10,40,10.00
2012,05,05,10,41,9.90
2012,05,05,10,42,9.90
2012,05,05,10,43,9.90
2012,05,05,10,44,9.90
2012,05,05,10,45,9.90
2012,05,05,10,46,9.90
2012,05,05,10,47,9.90
2012,05,05,10,48,9.90
2012,05,05,10,49,9.90
2012,05,05,10,50,9.90
2012,05,05,10,51,9.90
2012,05,05,10,52,9.80
2012,05,05,10,53,9.80
2012,05,05,10,54,9.80
2012,05,05,10,55,9.80
2012,05,05,10,56,9.80
2012,05,05,10,57,9.90
2012,05,05,10,58,9.90
2012,05,05,10,59,9.90
2012,05,05,11,00,9.90
2012,05,05,11,01,10.00
2012,05,05,11,02,10.00
2012,05,05,11,03,10.00
2012,05,05,11,04,10.00
2012,05,05,11,05,9.90
2012,05,05,11,06,10.00
2012,05,05,11,07,10.00
2012,05,05,11,08,10.10
2012,05,05,11,09,10.10
2012,05,05,11,10,10.20
2012,05,05,11,11,10.30
2012,05,05,11,12,10.40
2012,05,05,11,13,10.50
2012,05,05,11,14,10.60
2012,05,05,11,15,10.60
2012,05,05,11,16,10.60
2012,05,05,11,17,10.60
2012,05,05,11,18,10.60
2012,05,05,11,19,10.60
2012,05,05,11,20,10.60
2012,05,05,11,21,10.60
2012,05,05,11,22,10.60
2012,05,05,11,23,10.60
2012,05,05,11,24,10.60
2012,05,05,11,25,10.50
2012,05,05,11,26,10.50
2012,05,05,11,27,10.40
2012,05,05,11,28,10.30
2012,05,05,11,29,10.30
2012,05,05,11,30,10.30
2012,05,05,11,31,10.30
2012,05,05,11,32,10.40
2012,05,05,11,33,10.50
2012,05,05,11,34,10.60
2012,05,05,11,35,10.70
2012,05,05,11,36,10.80
2012,05,05,11,37,10.80
2012,05,05,11,38,10.80
2012,05,05,11,39,10.80
2012,05,05,11,40,10.90
2012,05,05,11,41,10.90
2012,05,05,11,42,10.90
2012,05,05,11,43,11.00
2012,05,05,11,44,10.90
2012,05,05,11,45,10.90
2012,05,05,11,46,11.00
2012,05,05,11,47,11.00
2012,05,05,11,48,11.00
2012,05,05,11,49,11.00
2012,05,05,11,50,11.00
2012,05,05,11,51,11.00
2012,05,05,11,52,11.00
2012,05,05,11,53,11.00
2012,05,05,11,54,11.10
2012,05,05,11,55,11.20
2012,05,05,11,56,11.30
2012,05,05,11,57,11.40
2012,05,05,11,58,11.50
2012,05,05,11,59,11.50
2012,05,05,12,00,11.40
2012,05,05,12,01,11.40
2012,05,05,12,02,11.50
2012,05,05,12,03,11.50
2012,05,05,12,04,11.60
2012,05,05,12,05,11.60
2012,05,05,12,06,11.70
2012,05,05,12,07,11.70
2012,05,05,12,08,11.70
2012,05,05,12,09,11.70
2012,05,05,12,10,11.80
2012,05,05,12,11,12.00
2012,05,05,12,12,12.10
2012,05,05,12,13,12.10
2012,05,05,12,14,12.10
2012,05,05,12,15,12.10
2012,05,05,12,16,12.10
2012,05,05,12,17,12.10
2012,05,05,12,18,12.00
2012,05,05,12,19,11.90
2012,05,05,12,20,11.80
2012,05,05,12,21,11.60
2012,05,05,12,22,11.60
2012,05,05,12,23,11.50
2012,05,05,12,24,11.30
2012,05,05,12,25,11.20
2012,05,05,12,26,11.10
2012,05,05,12,27,11.00
2012,05,05,12,28,10.90
2012,05,05,12,29,10.90
2012,05,05,12,30,10.80
2012,05,05,12,31,10.80
2012,05,05,12,32,10.80
2012,05,05,12,33,10.80
2012,05,05,12,34,10.80
2012,05,05,12,35,10.80
2012,05,05,12,36,10.90
2012,05,05,12,37,11.00
2012,05,05,12,38,11.00
2012,05,05,12,39,11.10
2012,05,05,12,40,11.20
2012,05,05,12,41,11.30
2012,05,05,12,42,11.30
2012,05,05,12,43,11.40
2012,05,05,12,44,11.40
2012,05,05,12,45,11.40
2012,05,05,12,46,11.30
2012,05,05,12,47,11.30
2012,05,05,12,48,11.30
2012,05,05,12,49,11.30
2012,05,05,12,50,11.30
2012,05,05,12,51,11.40
2012,05,05,12,52,11.40
2012,05,05,12,53,11.30
2012,05,05,12,54,11.30
2012,05,05,12,55,11.30
2012,05,05,12,56,11.40
2012,05,05,12,57,11.40
2012,05,05,12,58,11.40
2012,05,05,12,59,11.40
2012,05,05,13,00,11.40
2012,05,05,13,01,11.40
2012,05,05,13,02,11.50
2012,05,05,13,03,11.50
2012,05,05,13,04,11.50
2012,05,05,13,05,11.50
2012,05,05,13,06,11.60
2012,05,05,13,07,11.60
2012,05,05,13,08,11.60
2012,05,05,13,09,11.60
2012,05,05,13,10,11.50
2012,05,05,13,11,11.50
2012,05,05,13,12,11.50
2012,05,05,13,13,11.50
2012,05,05,13,14,11.50
2012,05,05,13,15,11.50
2012,05,05,13,16,11.50
2012,05,05,13,17,11.40
2012,05,05,13,18,11.40
2012,05,05,13,19,11.40
2012,05,05,13,20,11.40
2012,05,05,13,21,11.40
2012,05,05,13,22,11.40
2012,05,05,13,23,11.40
2012,05,05,13,24,11.40
2012,05,05,13,25,11.50
2012,05,05,13,26,11.50
2012,05,05,13,27,11.60
2012,05,05,13,28,11.60
2012,05,05,13,29,11.70
2012,05,05,13,30,11.70
2012,05,05,13,31,11.80
2012,05,05,13,32,11.80
2012,05,05,13,33,11.80
2012,05,05,13,34,11.80
2012,05,05,13,35,11.90
2012,05,05,13,36,11.90
2012,05,05,13,37,11.90
2012,05,05,13,38,11.90
2012,05,05,13,39,11.90
2012,05,05,13,40,11.90
2012,05,05,13,41,12.00
2012,05,05,13,42,12.10
2012,05,05,13,43,12.20
2012,05,05,13,44,12.20
2012,05,05,13,45,12.20
2012,05,05,13,46,12.20
2012,05,05,13,47,12.30
2012,05,05,13,48,12.30
2012,05,05,13,49,12.30
2012,05,05,13,50,12.20
2012,05,05,13,51,12.10
2012,05,05,13,52,12.10
2012,05,05,13,53,12.10
2012,05,05,13,54,12.20
2012,05,05,13,55,12.20
2012,05,05,13,56,12.20
2012,05,05,13,57,12.20
2012,05,05,13,58,12.20
2012,05,05,13,59,12.30
2012,05,05,14,00,12.30
2012,05,05,14,01,12.20
2012,05,05,14,02,12.20
2012,05,05,14,03,12.20
2012,05,05,14,04,12.20
2012,05,05,14,05,12.30
2012,05,05,14,06,12.30
2012,05,05,14,07,12.30
2012,05,05,14,08,12.30
2012,05,05,14,09,12.30
2012,05,05,14,10,12.30
2012,05,05,14,11,12.40
2012,05,05,14,12,12.40
2012,05,05,14,13,12.40
2012,05,05,14,14,12.40
2012,05,05,14,15,12.50
2012,05,05,14,16,12.50
2012,05,05,14,17,12.50
2012,05,05,14,18,12.50
2012,05,05,14,19,12.50
2012,05,05,14,20,12.50
2012,05,05,14,21,12.50
2012,05,05,14,22,12.40
2012,05,05,14,23,12.40
2012,05,05,14,24,12.30
2012,05,05,14,25,12.40
2012,05,05,14,26,12.40
2012,05,05,14,27,12.40
2012,05,05,14,28,12.40
2012,05,05,14,29,12.40
2012,05,05,14,30,12.40
2012,05,05,14,31,12.40
2012,05,05,14,32,12.40
2012,05,05,14,33,12.40
2012,05,05,14,34,12.40
2012,05,05,14,35,12.50
2012,05,05,14,36,12.50
2012,05,05,14,37,12.50
2012,05,05,14,38,12.60
2012,05,05,14,39,12.60
2012,05,05,14,40,12.70
2012,05,05,14,41,12.80
2012,05,05,14,42,12.80
2012,05,05,14,43,12.90
2012,05,05,14,44,12.90
2012,05,05,14,45,12.90
2012,05,05,14,46,13.00
2012,05,05,14,47,13.00
2012,05,05,14,48,13.10
2012,05,05,14,49,13.10
2012,05,05,14,50,13.20
2012,05,05,14,51,13.20
2012,05,05,14,52,13.20
2012,05,05,14,53,13.20
2012,05,05,14,54,13.20
2012,05,05,14,55,13.30
2012,05,05,14,56,13.50
2012,05,05,14,57,13.60
2012,05,05,14,58,13.70
2012,05,05,14,59,13.80
2012,05,05,15,00,13.80
2012,05,05,15,01,13.80
2012,05,05,15,02,13.70
2012,05,05,15,03,13.70
2012,05,05,15,04,13.60
2012,05,05,15,05,13.60
2012,05,05,15,06,13.60
2012,05,05,15,07,13.60
2012,05,05,15,08,13.60
2012,05,05,15,09,13.70
2012,05,05,15,10,13.70
2012,05,05,15,11,13.70
2012,05,05,15,12,13.70
2012,05,05,15,13,13.70
2012,05,05,15,14,13.80
2012,05,05,15,15,13.70
2012,05,05,15,16,13.70
2012,05,05,15,17,13.60
2012,05,05,15,18,13.60
2012,05,05,15,19,13.50
2012,05,05,15,20,13.50
2012,05,05,15,21,13.40
2012,05,05,15,22,13.40
2012,05,05,15,23,13.40
2012,05,05,15,24,13.40
2012,05,05,15,25,13.40
2012,05,05,15,26,13.30
2012,05,05,15,27,13.40
2012,05,05,15,28,13.40
2012,05,05,15,29,13.40
2012,05,05,15,30,13.40
2012,05,05,15,31,13.50
2012,05,05,15,32,13.50
2012,05,05,15,33,13.50
2012,05,05,15,34,13.50
2012,05,05,15,35,13.40
2012,05,05,15,36,13.40
2012,05,05,15,37,13.40
2012,05,05,15,38,13.40
2012,05,05,15,39,13.40
2012,05,05,15,40,13.40
2012,05,05,15,41,13.30
2012,05,05,15,42,13.30
2012,05,05,15,43,13.30
2012,05,05,15,44,13.30
2012,05,05,15,45,13.40
2012,05,05,15,46,13.40
2012,05,05,15,47,13.50
2012,05,05,15,48,13.50
2012,05,05,15,49,13.50
2012,05,05,15,50,13.60
2012,05,05,15,51,13.60
2012,05,05,15,52,13.60
2012,05,05,15,53,13.60
2012,05,05,15,54,13.60
2012,05,05,15,55,13.60
2012,05,05,15,56,13.60
2012,05,05,15,57,13.50
2012,05,05,15,58,13.40
2012,05,05,15,59,13.40
2012,05,05,16,00,13.40
2012,05,05,16,01,13.40
2012,05,05,16,02,13.40
2012,05,05,16,03,13.40
2012,05,05,16,04,13.40
2012,05,05,16,05,13.40
2012,05,05,16,06,13.40
2012,05,05,16,07,13.30
2012,05,05,16,08,13.30
2012,05,05,16,09,13.20
2012,05,05,16,10,13.20
2012,05,05,16,11,13.20
2012,05,05,16,12,13.20
2012,05,05,16,13,13.20
2012,05,05,16,14,13.20
2012,05,05,16,15,13.20
2012,05,05,16,16,13.20
2012,05,05,16,17,13.20
2012,05,05,16,18,13.30
2012,05,05,16,19,13.30
2012,05,05,16,20,13.30
2012,05,05,16,21,13.40
2012,05,05,16,22,13.40
2012,05,05,16,23,13.50
2012,05,05,16,24,13.60
2012,05,05,16,25,13.60
2012,05,05,16,26,13.70
2012,05,05,16,27,13.70
2012,05,05,16,28,13.70
2012,05,05,16,29,13.80
2012,05,05,16,30,13.80
2012,05,05,16,31,13.80
2012,05,05,16,32,13.90
2012,05,05,16,33,13.90
2012,05,05,16,34,14.00
2012,05,05,16,35,14.00
2012,05,05,16,36,14.00
2012,05,05,16,37,14.10
2012,05,05,16,38,14.10
2012,05,05,16,39,14.10
2012,05,05,16,40,14.00
2012,05,05,16,41,14.00
2012,05,05,16,42,13.90
2012,05,05,16,43,13.90
2012,05,05,16,44,13.80
2012,05,05,16,45,13.80
2012,05,05,16,46,13.80
2012,05,05,16,47,13.80
2012,05,05,16,48,13.80
2012,05,05,16,49,13.80
2012,05,05,16,50,13.80
2012,05,05,16,51,13.80
2012,05,05,16,52,13.80
2012,05,05,16,53,13.80
2012,05,05,16,54,13.80
2012,05,05,16,55,13.80
2012,05,05,16,56,13.70
2012,05,05,16,57,13.70
2012,05,05,16,58,13.70
2012,05,05,16,59,13.70
2012,05,05,17,00,13.80
2012,05,05,17,01,13.80
2012,05,05,17,02,13.90
2012,05,05,17,03,13.90
2012,05,05,17,04,14.00
2012,05,05,17,05,14.10
2012,05,05,17,06,14.10
2012,05,05,17,07,14.10
2012,05,05,17,08,14.20
2012,05,05,17,09,14.30
2012,05,05,17,10,14.30
2012,05,05,17,11,14.30
2012,05,05,17,12,14.40
2012,05,05,17,13,14.40
2012,05,05,17,14,14.40
2012,05,05,17,15,14.40
2012,05,05,17,16,14.30
2012,05,05,17,17,14.30
2012,05,05,17,18,14.30
2012,05,05,17,19,14.30
2012,05,05,17,20,14.30
2012,05,05,17,21,14.30
2012,05,05,17,22,14.30
2012,05,05,17,23,14.30
2012,05,05,17,24,14.30
2012,05,05,17,25,14.40
2012,05,05,17,26,14.40
2012,05,05,17,27,14.50
2012,05,05,17,28,14.60
2012,05,05,17,29,14.50
2012,05,05,17,30,14.40
2012,05,05,17,31,14.40
2012,05,05,17,32,14.40
2012,05,05,17,33,14.50
2012,05,05,17,34,14.60
2012,05,05,17,35,14.70
2012,05,05,17,36,14.70
2012,05,05,17,37,14.80
2012,05,05,17,38,14.80
2012,05,05,17,39,14.80
2012,05,05,17,40,14.80
2012,05,05,17,41,14.80
2012,05,05,17,42,14.90
2012,05,05,17,43,15.00
2012,05,05,17,44,15.00
2012,05,05,17,45,15.00
2012,05,05,17,46,15.00
2012,05,05,17,47,15.00
2012,05,05,17,48,15.00